FENGYUN 1C DEB

Satellite information

Favourite Embed

Satellite Type and Status

DEBRISIN ORBIT

Key statistics

Satellite FENGYUN 1C DEB at a glance.

Uptime

9556

Days in orbit

Revolutions

≈ 14.3

Per day

Orbit

SSO

Sun Synchronous Orbit

Inclination

98.4

Latest

Satellite identification and parameters

Extended collection of information and parameters for FENGYUN 1C DEB.

Object identification

Identified? True

Debris? True

Object name: FENGYUN 1C DEB

International designator: 1999-025FU

Object number (NORAD): 29874

Object ID (CCSDS): 29874

Country: PEOPLES REPUBLIC OF CHINA (PRC)

Current information (Y/N): Y

RCS size: SMALL

Orbital parameters

Period: 100.941 minutes

Inclination: 98.3857 deg

SMA: 7181.327 km

Apoapsis: 881.043 km

Periapsis: 725.341 km

RAAN: 92.032 deg

Eccentricy: 0.0108407

Argument of periapsis: 93.9788 deg

Mean anomaly: 322.4463 deg

Mean motion: 14.26578595 rev/day

Mean motion (dot): 0.00003851 rev/day2

B* drag term: 0.0015148 1/REarth

Two-line elements (TLE)

Creation date: July 8, 2025, 2:27 a.m.

Reference frame: TEME

Reference center: EARTH

Epoch: July 7, 2025, 5:07 p.m. UTC

TLE line 0: 0 FENGYUN 1C DEB

TLE line 1: 1 29874U 99025FU 25188.71356407 .00003851 00000-0 15148-2 0 9990

TLE line 2: 2 29874 98.3857 92.0320 0108407 93.9788 322.4463 14.26578595945938

Live tracking on map

Real-time ground track for satellite FENGYUN 1C DEB.

In-orbit conjunctions

A list of the most updated potential collisions computed for object FENGYUN 1C DEB.

Target Orbit TCA Probability of collision Miss distance Type
CZ-6A DEB SSO 2024-11-11 12:23:47 0.0002237819 324.0 (m) DEBRIS
CZ-4B DEB SSO 2024-10-01 05:41:00 0.000115187 53.0 (m) DEBRIS

Associated space launch

Chinese polar orbiting meteorological satellite

FENGYUN 1C DEB was lifted into orbit during the mission ‘Long March 4B | Feng Yun 1C’, on board a Long March 4B space rocket.

The launch took place on May 10, 1999, 1:33 a.m. from Launch Complex 7.

For more information about the launch, click the button.

Launch to space Long March 4B | Feng Yun 1C
Long March 4B | Feng Yun 1C

Agency: N/A

Status: Launch Successful

Launch date: May 10, 1999, 1:33 a.m. UTC

Rocket: Long March 4B

Launch pad: Launch Complex 7

Location: Taiyuan Satellite Launch Center, People's Republic of China

...

Latest news about this satellite

There are no fresh news available about this satellite. Check back as we update our databases every day.


Newsletter sign-up

Weekly statistics, charts and insights to help you stay on top of the space industry.